Voltar ao catálogo

MARAFON NO. 1

AtivoCiênciaSSO
NORAD 67250·PAYLOAD·🇹🇷 Turkey
Este nome de satélite ainda não foi confirmado por fontes oficiais.

Lançado Dec 28, 2025 de Vostochny Cosmodrome

Loading…

Próximas Passagens (próximas 24 horas)

TLE

AtualizadoSource: Space-Track

Época: Sep 14, 2026, 22:07 UTC

1 67250U 25313C   26257.92167520  .00007381  00000-0  62460-3 0  9998
2 67250  97.6093 325.3072 0147867  39.3153 321.8690 14.90139076 38713

Acompanhe MARAFON NO. 1 em tempo real com AllMySat

Download on the App Store